Loon Lake Weather Center

Moon Phase Calendar



Loon Lake Water Level
Online Cameras

 


      

Current Conditions in Tahoma
6/14/2021 8:34:51 AM

58°F
Feels Like 57
Clouds
Humidity
60%
Pressure
30"
Wind
10.1 mph (SW)
Dew Point
45°F
UV Index
3/10 (Moderate)
Visibility
6 mi

Hourly Forecast

Date & Time Mon, Jun 14
8:00 AM
Mon, Jun 14
9:00 AM
Mon, Jun 14
10:00 AM
Mon, Jun 14
11:00 AM
Mon, Jun 14
12:00 PM
Mon, Jun 14
1:00 PM
Mon, Jun 14
2:00 PM
Mon, Jun 14
3:00 PM
Mon, Jun 14
4:00 PM
Mon, Jun 14
5:00 PM
Mon, Jun 14
6:00 PM
Mon, Jun 14
7:00 PM
Mon, Jun 14
8:00 PM
Mon, Jun 14
9:00 PM
Mon, Jun 14
10:00 PM
Mon, Jun 14
11:00 PM
Tue, Jun 15
12:00 AM
Tue, Jun 15
1:00 AM
Tue, Jun 15
2:00 AM
Tue, Jun 15
3:00 AM
Tue, Jun 15
4:00 AM
Tue, Jun 15
5:00 AM
Tue, Jun 15
6:00 AM
Tue, Jun 15
7:00 AM
Tue, Jun 15
8:00 AM
Tue, Jun 15
9:00 AM
Tue, Jun 15
10:00 AM
Tue, Jun 15
11:00 AM
Tue, Jun 15
12:00 PM
Tue, Jun 15
1:00 PM
Tue, Jun 15
2:00 PM
Tue, Jun 15
3:00 PM
Tue, Jun 15
4:00 PM
Tue, Jun 15
5:00 PM
Tue, Jun 15
6:00 PM
Tue, Jun 15
7:00 PM
Tue, Jun 15
8:00 PM
Tue, Jun 15
9:00 PM
Tue, Jun 15
10:00 PM
Tue, Jun 15
11:00 PM
Wed, Jun 16
12:00 AM
Wed, Jun 16
1:00 AM
Wed, Jun 16
2:00 AM
Wed, Jun 16
3:00 AM
Wed, Jun 16
4:00 AM
Wed, Jun 16
5:00 AM
Wed, Jun 16
6:00 AM
Wed, Jun 16
7:00 AM
Condition
Clouds

Clouds

Clouds

Clouds

Clouds

Clouds

Clear

Clear

Clear

Clear

Clear

Clear

Clear

Clear

Clear

Clear

Clear

Clear

Clear

Clear

Clear

Clear

Clear

Clear

Clear

Clear

Clear

Clear

Clear

Clear

Clear

Clear

Clear

Clear

Clear

Clear

Clear

Clear

Clear

Clear

Clear

Clouds

Clouds

Clouds

Clouds

Clouds

Clouds

Clouds
Temperature 58°F58°F59°F61°F63°F65°F66°F66°F65°F63°F60°F57°F52°F45°F43°F42°F43°F44°F44°F44°F44°F44°F44°F51°F57°F61°F64°F67°F68°F70°F71°F71°F71°F70°F68°F65°F55°F51°F50°F51°F52°F52°F52°F52°F52°F51°F51°F57°F
Feels Like 57°F57°F58°F59°F61°F63°F65°F64°F63°F61°F58°F55°F50°F43°F43°F42°F43°F44°F44°F44°F44°F42°F44°F49°F55°F59°F61°F64°F66°F67°F68°F69°F68°F67°F66°F63°F52°F47°F46°F47°F48°F48°F48°F48°F48°F47°F47°F54°F
Cloudiness 60%61%61%58%29%17%5%4%3%3%0%0%3%3%2%2%0%0%0%0%0%0%0%0%0%0%0%0%3%1%1%1%1%0%3%1%1%1%1%0%0%49%65%74%79%69%15%31%
Visibility 6 mi6 mi6 mi6 mi6 mi6 mi6 mi6 mi6 mi6 mi6 mi6 mi6 mi6 mi6 mi6 mi6 mi6 mi6 mi6 mi6 mi6 mi6 mi6 mi6 mi6 mi6 mi6 mi6 mi6 mi6 mi6 mi6 mi6 mi6 mi6 mi6 mi6 mi6 mi6 mi6 mi6 mi6 mi6 mi6 mi6 mi6 mi6 mi
Precipitation 0%0%0%0%0%0%0%0%0%0%0%0%0%0%0%0%0%0%0%0%0%0%0%0%0%0%0%0%0%0%0%0%0%0%0%0%0%0%0%0%0%0%0%0%0%0%0%0%
Humidity 62%60%58%55%51%48%45%45%44%45%48%55%67%83%85%85%85%85%85%86%86%86%85%69%56%44%34%26%21%17%15%13%12%13%14%19%29%27%26%25%26%26%26%27%27%28%29%30%
Dew Point 45°F45°F45°F45°F44°F45°F45°F44°F43°F41°F41°F41°F41°F40°F39°F38°F39°F40°F40°F40°F40°F40°F40°F42°F42°F39°F35°F31°F27°F23°F20°F17°F17°F16°F17°F22°F24°F18°F17°F17°F18°F18°F19°F19°F19°F18°F19°F26°F
Pressure 30"30"30"30"29.97"29.97"29.97"29.97"29.97"29.97"30"30.03"30.06"30.09"30.12"30.12"30.12"30.12"30.12"30.12"30.12"30.12"30.12"30.12"30.09"30.09"30.06"30.06"30.06"30.06"30.06"30.06"30.06"30.06"30.06"30.06"30.12"30.15"30.15"30.15"30.15"30.12"30.12"30.12"30.12"30.12"30.12"30.09"
Wind Speed 8.2 mph10.1 mph13 mph14.8 mph15.2 mph15.6 mph15.5 mph15.3 mph15.7 mph15.3 mph13.9 mph10.1 mph5.9 mph3.6 mph1.6 mph2 mph2.3 mph2.6 mph2.1 mph2.3 mph2.9 mph3 mph2.8 mph3.5 mph7.6 mph9.6 mph11.3 mph13.3 mph13.4 mph12.9 mph12.3 mph11 mph9.4 mph8 mph6.3 mph4.5 mph1.3 mph3.6 mph4.8 mph5.4 mph5.3 mph5.6 mph6.1 mph6.6 mph6.6 mph6.8 mph6.7 mph5.7 mph
Wind
Direction
205°
SSW
217°
SW
226°
SW
225°
SW
230°
SW
233°
SW
233°
SW
233°
SW
233°
SW
236°
SW
236°
SW
239°
WSW
240°
WSW
224°
SW
215°
SW
129°
SE
152°
SSE
167°
SSE
180°
S
169°
S
156°
SSE
157°
SSE
160°
SSE
208°
SSW
222°
SW
224°
SW
227°
SW
232°
SW
235°
SW
238°
WSW
240°
WSW
243°
WSW
245°
WSW
244°
WSW
244°
WSW
253°
WSW
301°
WNW
81°
E
86°
E
95°
E
89°
E
89°
E
87°
E
83°
E
84°
E
85°
E
87°
E
89°
E

Daily Forecast

Date High Low Precip. Humidity
Today
Jun 14

Clouds
66 °F
42 °F
0%
48%
Tuesday
Jun 15

Clear
71 °F
43 °F
0%
17%
Wednesday
Jun 16

Clouds
81 °F
51 °F
0%
11%
Thursday
Jun 17

Clouds
87 °F
57 °F
0%
10%
Friday
Jun 18

Clear
85 °F
61 °F
0%
13%
Saturday
Jun 19

Clear
84 °F
59 °F
0%
14%
Sunday
Jun 20

Clear
81 °F
56 °F
0%
12%
Monday
Jun 21

Clear
82 °F
55 °F
0%
15%
Tuesday
Jun 22

Clear
81 °F
54 °F
0%
22%
Wednesday
Jun 23

Clear
74 °F
50 °F
3%
30%
Thursday
Jun 24

Clear
75 °F
49 °F
0%
23%
Friday
Jun 25

Clear
80 °F
52 °F
0%
18%
Saturday
Jun 26

Rain
81 °F
56 °F
20%
20%
Sunday
Jun 27

Clouds
73 °F
51 °F
0%
26%
Monday
Jun 28

Rain
67 °F
49 °F
28%
25%
Tuesday
Jun 29

Rain
56 °F
44 °F
79%
67%

Temperature 8-14 Day Outlook



Precipitation 8-14 Day Outlook




Quick Links
Loon Lake News
Loon Lake Photos
Loon Lake Videos




About Us
Contact Us
Site Map
Search Site
Advertise With Us
   
LoonLake.LakesOnline.com
THE LOON LAKE WEBSITE

Copyright 2021, Lakes Online
Privacy    |    Legal